Miscellaneous Local Product
Issued by NWS North Platte, NE

Home | Current Version | Previous Version | Text Only | Print | Product List | Glossary On
Versions: 1 2 3 4 5 6 7 8 9 10 11 12 13 14 15 16 17 18 19 20 21 22 23 24 25 26 27 28 29 30 31 32 33 34 35 36 37 38 39 40 41 42 43 44 45 46 47 48 49 50
914
AXUS43 KLBF 220510
MISLBF


WESTERN AND NORTH CENTRAL NEBRASKA HOURLY WEATHER ROUNDUP
NATIONAL WEATHER SERVICE NORTH PLATTE NE
1200 AM CDT THU JUN 22 2017

NOTE: "FAIR" INDICATES FEW OR NO CLOUDS BELOW 12,000 FEET WITH NO
SIGNIFICANT WEATHER AND/OR OBSTRUCTIONS TO VISIBILITY.

NOTE: STATIONS NOT REPORTING VARIABLES SUCH AS SKY/WEATHER OR
PRESSURE ARE PROVIDED BY RAWS AND APRS NETWORKS AND ARE NOT UNDER
NATIONAL WEATHER SERVICE QUALITY CONTROL.

...OBSERVATIONS IN AND NEAR THE EASTERN PANHANDLE OF NEBRASKA...

CITY           SKY/WX    TMP DP  RH WIND       PRES   REMARKS
PINE RIDGE     CLOUDY    66  60  81 NE5       29.75S
GORDON         FAIR      68  57  66 CALM      29.76S
CHADRON        CLEAR     66  58  75 N8        29.74S
ALLIANCE       CLEAR     68  56  65 S8        29.77F
SIDNEY         CLEAR     63  48  58 S6        29.85S
CRESCENT LAKE    N/A     76  53  44 CALM        N/A
$$

...OBSERVATIONS IN NORTHERN NEBRASKA AND FAR SOUTHERN SOUTH DAKOTA...

CITY           SKY/WX    TMP DP  RH WIND       PRES   REMARKS
WINNER         FAIR      73  64  73 SE5       29.68S
VALENTINE      CLEAR     80  59  48 E7        29.70F
THEDFORD       CLEAR     74  58  57 SE6       29.73F
AINSWORTH      CLEAR     72  64  75 E6        29.71S
O`NEILL        CLEAR     76  68  76 N7        29.69F
ORD            CLEAR     75  69  81 S5        29.68R
BROKEN BOW     CLEAR     76  66  71 S7        29.71S
VALENTINE NWR    N/A     76  50  39 E5          N/A
HALSEY           N/A     78  60  53 SE6         N/A
BUTTE            N/A     79  65  62 E9          N/A
EWING            N/A     77  71  82 CALM        N/A
$$

...OBSERVATIONS IN SOUTHWEST NEBRASKA AND FAR NORTHEAST COLORADO...

CITY           SKY/WX    TMP DP  RH WIND       PRES   REMARKS
WRAY           FAIR      75  46  35 CALM      29.80S
IMPERIAL       CLEAR     72  49  44 SE5       29.75F
OGALLALA       CLEAR     70  54  57 CALM      29.76R
NORTH PLATTE   CLEAR     72  61  68 E5        29.72F
MCCOOK         CLEAR     80  55  42 SW12      29.71F
LEXINGTON      CLEAR     78  67  69 S17G23    29.72S
STAPLETON        N/A     76  59  55 CALM        N/A
GOTHENBURG       N/A     83  61  47 SE6         N/A
CALLAWAY         N/A     72  66  81 S7          N/A
$$

...OBSERVATIONS IN CENTRAL LINCOLN COUNTY AREA...

CITY           SKY/WX    TMP DP  RH WIND       PRES   REMARKS
N.P. AIRPORT   CLEAR     72  61  68 E5        29.72F
N.P. DOWNTOWN    N/A     78  60  53 CALM        N/A
N.P. SOUTHEAST   N/A     77  60  56 CALM        N/A
N.P. HILLCREST   N/A     77  62  58 E9          N/A
$$

...SOME OBSERVATIONS FROM AROUND THE REGION...

CITY           SKY/WX    TMP DP  RH WIND       PRES   REMARKS
DENVER         PTCLDY    74  39  28 SW8       29.96S
LIMON          CLEAR     69  39  33 W10       29.97S
ASPEN          CLOUDY    61  39  44 SW9       30.23R
LARAMIE        CLOUDY    62  36  37 SW10      30.08F
CASPER         CLOUDY    67  45  45 N9        29.89R
CHEYENNE       CLOUDY    72  36  26 W15       29.98S
SCOTTSBLUFF    PTCLDY    71  54  54 SW3       29.79F
GRAND ISLAND   CLOUDY    81  62  52 S21       29.70S
OMAHA          PTCLDY    84  60  44 S20       29.72R
SIOUX FALLS    PTCLDY    75  71  87 N9        29.68R
PIERRE         CLEAR     72  53  51 NE20G26   29.69F
RAPID CITY     CLEAR     70  47  43 NE8       29.77F
BISMARCK       PTCLDY    58  44  60 E6        29.74F
KANSAS CITY    CLEAR     78  65  63 S15       29.83S
HILL CITY      PTCLDY    77  67  71 E9        29.76R THUNDER
WICHITA        CLOUDY    76  61  59 S13       29.82F
DODGE CITY     MOCLDY    79  54  41 S10       29.75S
OKLAHOMA CITY  MOCLDY    74  60  61 SE10      29.85F
DALLAS         CLOUDY    80  69  69 E12       29.78R
AMARILLO       MOCLDY    71  59  65 NE33G43   30.03R
$$




USA.gov is the U.S. government's official web portal to all federal, state and local government web resources and services.